Volver al catálogo

STARLINK-37673

ActivoComunicacionesVLEO
NORAD 69370·PAYLOAD·🇺🇸 United States

Lanzado Jun 4, 2026 desde Cape Canaveral Space Force Station

Loading…

Próximos Pases (próximas 24 horas)

TLE

ActualizadoSource: CelesTrak SupGP

Época: Sep 15, 2026, 03:11 UTC

1 69370C 26123T   26258.13312500  .00037337  00000+0  11035-2 0  2589
2 69370  53.1579 166.7807 0001433 104.2711   1.3918 15.34361441    14

Sigue STARLINK-37673 en tiempo real con AllMySat

Download on the App Store